Time,TemperatureF,DewpointF,PressureIn,WindDirection,WindDirectionDegrees,WindSpeedMPH,WindSpeedGustMPH,Humidity,HourlyPrecipIn,Conditions,Clouds,dailyrainin,SoftwareType,DateUTC
2013-04-10 00:02:00,53.0,49.0,29.77,NW,325,7.0,13.0,86,0.03,,,0.18,,2013-04-10 05:02:00,
2013-04-10 00:13:00,52.0,48.0,29.77,NW,316,10.0,16.0,86,0.08,,,0.23,,2013-04-10 05:13:00,
2013-04-10 00:23:00,52.0,48.0,29.77,NW,316,10.0,16.0,86,0.08,,,0.23,,2013-04-10 05:23:00,
2013-04-10 00:32:00,51.0,48.0,29.77,NNW,335,4.0,9.0,88,0.08,,,0.23,,2013-04-10 05:32:00,
2013-04-10 00:42:00,51.0,48.0,29.77,NNW,335,4.0,9.0,88,0.08,,,0.23,,2013-04-10 05:42:00,
2013-04-10 00:53:00,50.0,47.0,29.78,NW,306,13.0,20.0,88,0.05,,,0.23,,2013-04-10 05:53:00,
2013-04-10 01:03:00,50.0,46.0,29.84,NW,325,6.0,13.0,87,0.07,,,0.25,,2013-04-10 06:03:00,
2013-04-10 01:12:00,47.0,43.0,29.83,NW,313,12.0,26.0,87,0.03,,,0.26,,2013-04-10 06:12:00,
2013-04-10 01:22:00,47.0,43.0,29.83,NW,313,12.0,26.0,87,0.03,,,0.26,,2013-04-10 06:22:00,
2013-04-10 01:32:00,45.0,41.0,29.88,NW,321,15.0,20.0,87,0.04,,,0.27,,2013-04-10 06:32:00,
2013-04-10 01:42:00,45.0,41.0,29.88,NW,321,15.0,20.0,87,0.04,,,0.27,,2013-04-10 06:42:00,
2013-04-10 01:52:00,44.0,40.0,29.83,North,5,7.0,12.0,87,0.04,,,0.27,,2013-04-10 06:52:00,
2013-04-10 02:02:00,44.0,41.0,29.83,North,5,9.0,10.0,88,0.05,,,0.30,,2013-04-10 07:02:00,
2013-04-10 02:12:00,44.0,41.0,29.83,North,5,9.0,10.0,88,0.05,,,0.30,,2013-04-10 07:12:00,
2013-04-10 02:22:00,46.0,43.0,29.83,North,357,4.0,12.0,89,0.05,,,0.31,,2013-04-10 07:22:00,
2013-04-10 02:32:00,46.0,43.0,29.86,North,2,4.0,7.0,89,0.05,,,0.32,,2013-04-10 07:32:00,
2013-04-10 02:42:00,46.0,43.0,29.86,North,2,4.0,7.0,89,0.05,,,0.32,,2013-04-10 07:42:00,
2013-04-10 02:52:00,46.0,43.0,29.82,North,5,9.0,14.0,89,0.05,,,0.32,,2013-04-10 07:52:00,
2013-04-10 03:02:00,45.0,42.0,29.79,NNE,28,11.0,15.0,89,0.02,,,0.32,,2013-04-10 08:02:00,
2013-04-10 03:12:00,45.0,42.0,29.72,NNE,28,14.0,22.0,89,0.02,,,0.33,,2013-04-10 08:12:00,
2013-04-10 03:22:00,45.0,42.0,29.72,NNE,28,14.0,22.0,89,0.02,,,0.33,,2013-04-10 08:22:00,
2013-04-10 03:32:00,46.0,43.0,29.73,NNE,26,11.0,16.0,90,0.01,,,0.33,,2013-04-10 08:32:00,
2013-04-10 03:42:00,46.0,43.0,29.74,ENE,64,6.0,12.0,89,0.01,,,0.33,,2013-04-10 08:42:00,
2013-04-10 03:52:00,46.0,43.0,29.74,ENE,64,6.0,12.0,89,0.01,,,0.33,,2013-04-10 08:52:00,
2013-04-10 04:02:00,46.0,43.0,29.75,North,10,8.0,11.0,89,0.01,,,0.33,,2013-04-10 09:02:00,
2013-04-10 04:12:00,46.0,43.0,29.77,NNE,15,3.0,7.0,89,0.00,,,0.33,,2013-04-10 09:12:00,
2013-04-10 04:22:00,46.0,43.0,29.77,NNE,15,3.0,7.0,89,0.00,,,0.33,,2013-04-10 09:22:00,
2013-04-10 04:32:00,47.0,44.0,29.80,WNW,298,4.0,10.0,89,0.02,,,0.35,,2013-04-10 09:32:00,
2013-04-10 04:43:00,46.0,43.0,29.82,NW,307,4.0,4.0,90,0.13,,,0.46,,2013-04-10 09:43:00,
2013-04-10 04:53:00,46.0,43.0,29.82,NW,307,4.0,4.0,90,0.13,,,0.46,,2013-04-10 09:53:00,
2013-04-10 05:03:00,46.0,43.0,29.84,NW,326,3.0,12.0,89,0.15,,,0.48,,2013-04-10 10:03:00,
2013-04-10 05:12:00,45.0,42.0,29.80,NNW,338,4.0,10.0,89,0.21,,,0.54,,2013-04-10 10:12:00,
2013-04-10 05:23:00,45.0,42.0,29.80,NNW,338,4.0,10.0,89,0.21,,,0.54,,2013-04-10 10:23:00,
2013-04-10 05:33:00,45.0,42.0,29.81,NNE,21,2.0,7.0,89,0.23,,,0.56,,2013-04-10 10:33:00,
2013-04-10 05:42:00,45.0,42.0,29.81,NNE,21,2.0,7.0,89,0.23,,,0.56,,2013-04-10 10:42:00,
2013-04-10 05:52:00,45.0,42.0,29.85,NW,305,2.0,5.0,89,0.12,,,0.57,,2013-04-10 10:52:00,
2013-04-10 06:02:00,44.0,41.0,29.83,NW,306,1.0,3.0,89,0.10,,,0.57,,2013-04-10 11:02:00,
2013-04-10 06:12:00,44.0,41.0,29.83,NW,306,1.0,3.0,89,0.10,,,0.57,,2013-04-10 11:12:00,
2013-04-10 06:22:00,44.0,41.0,29.88,West,272,0.0,3.0,90,0.06,,,0.57,,2013-04-10 11:22:00,
2013-04-10 06:32:00,44.0,41.0,29.85,NNW,339,0.0,3.0,90,0.01,,,0.57,,2013-04-10 11:32:00,
2013-04-10 06:42:00,44.0,41.0,29.85,NNW,339,0.0,3.0,90,0.01,,,0.57,,2013-04-10 11:42:00,
2013-04-10 06:52:00,44.0,41.0,29.83,NW,324,3.0,7.0,90,0.01,,,0.57,,2013-04-10 11:52:00,
2013-04-10 07:03:00,44.0,41.0,29.89,NW,314,5.0,6.0,89,0.00,,,0.57,,2013-04-10 12:03:00,
2013-04-10 07:12:00,44.0,41.0,29.89,NW,314,5.0,6.0,89,0.00,,,0.57,,2013-04-10 12:12:00,
2013-04-10 07:22:00,43.0,40.0,29.89,NNW,332,5.0,7.0,89,0.00,,,0.57,,2013-04-10 12:22:00,
2013-04-10 07:33:00,42.0,39.0,29.89,North,356,6.0,7.0,89,0.00,,,0.57,,2013-04-10 12:33:00,
2013-04-10 07:42:00,42.0,39.0,29.89,North,356,6.0,7.0,89,0.00,,,0.57,,2013-04-10 12:42:00,
2013-04-10 07:52:00,42.0,39.0,29.87,NW,317,5.0,9.0,89,0.00,,,0.57,,2013-04-10 12:52:00,
2013-04-10 08:02:00,41.0,38.0,29.87,NW,324,3.0,7.0,89,0.00,,,0.57,,2013-04-10 13:02:00,
2013-04-10 08:12:00,41.0,38.0,29.87,NW,324,3.0,7.0,89,0.00,,,0.57,,2013-04-10 13:12:00,
2013-04-10 08:23:00,41.0,38.0,29.89,NW,321,3.0,8.0,89,0.00,,,0.57,,2013-04-10 13:23:00,
2013-04-10 08:32:00,41.0,38.0,29.86,NNW,345,2.0,10.0,89,0.00,,,0.57,,2013-04-10 13:32:00,
2013-04-10 08:42:00,41.0,38.0,29.86,NNW,345,2.0,10.0,89,0.00,,,0.57,,2013-04-10 13:42:00,
2013-04-10 08:53:00,41.0,38.0,29.88,NW,306,2.0,6.0,89,0.00,,,0.57,,2013-04-10 13:53:00,
2013-04-10 09:02:00,41.0,38.0,29.88,NW,308,4.0,10.0,89,0.00,,,0.57,,2013-04-10 14:02:00,
2013-04-10 09:12:00,41.0,38.0,29.91,North,358,3.0,5.0,88,0.00,,,0.57,,2013-04-10 14:12:00,
2013-04-10 09:22:00,41.0,38.0,29.91,North,358,3.0,5.0,88,0.00,,,0.57,,2013-04-10 14:22:00,
2013-04-10 09:32:00,41.0,38.0,29.90,NNW,343,5.0,6.0,89,0.00,,,0.57,,2013-04-10 14:32:00,
2013-04-10 09:42:00,41.0,38.0,29.89,North,0,2.0,4.0,88,0.00,,,0.57,,2013-04-10 14:42:00,
2013-04-10 09:52:00,41.0,38.0,29.89,North,0,2.0,4.0,88,0.00,,,0.57,,2013-04-10 14:52:00,
2013-04-10 10:02:00,41.0,38.0,29.92,North,349,1.0,4.0,88,0.00,,,0.57,,2013-04-10 15:02:00,
2013-04-10 10:12:00,41.0,38.0,29.87,NW,306,0.0,6.0,88,0.00,,,0.57,,2013-04-10 15:12:00,
2013-04-10 10:22:00,41.0,38.0,29.87,NW,306,0.0,6.0,88,0.00,,,0.57,,2013-04-10 15:22:00,
2013-04-10 10:32:00,41.0,38.0,29.86,NW,321,4.0,5.0,89,0.00,,,0.57,,2013-04-10 15:32:00,
2013-04-10 10:42:00,41.0,38.0,29.86,NW,321,4.0,5.0,89,0.00,,,0.57,,2013-04-10 15:42:00,
2013-04-10 10:52:00,41.0,38.0,29.91,WNW,301,1.0,7.0,89,0.02,,,0.59,,2013-04-10 15:52:00,
2013-04-10 11:03:00,41.0,38.0,29.93,West,276,3.0,6.0,89,0.07,,,0.64,,2013-04-10 16:03:00,
2013-04-10 11:13:00,41.0,38.0,29.93,West,276,3.0,6.0,89,0.07,,,0.64,,2013-04-10 16:13:00,
2013-04-10 11:23:00,41.0,38.0,29.90,NNE,23,3.0,6.0,89,0.11,,,0.68,,2013-04-10 16:23:00,
2013-04-10 11:32:00,41.0,38.0,29.91,NNW,338,2.0,4.0,90,0.12,,,0.69,,2013-04-10 16:32:00,
2013-04-10 11:43:00,41.0,38.0,29.91,NNW,338,2.0,4.0,90,0.12,,,0.69,,2013-04-10 16:43:00,
2013-04-10 11:53:00,42.0,39.0,29.90,South,191,1.0,5.0,90,0.12,,,0.70,,2013-04-10 16:53:00,
2013-04-10 12:02:00,42.0,39.0,29.87,NNW,333,4.0,11.0,89,0.07,,,0.71,,2013-04-10 17:02:00,
2013-04-10 12:12:00,42.0,39.0,29.88,NNW,345,2.0,10.0,90,0.04,,,0.71,,2013-04-10 17:12:00,
2013-04-10 12:22:00,42.0,39.0,29.88,NNW,345,2.0,10.0,90,0.04,,,0.71,,2013-04-10 17:22:00,
2013-04-10 12:33:00,42.0,39.0,29.86,NNW,339,9.0,13.0,89,0.02,,,0.71,,2013-04-10 17:33:00,
2013-04-10 12:42:00,42.0,39.0,29.86,NNW,339,9.0,13.0,89,0.02,,,0.71,,2013-04-10 17:42:00,
2013-04-10 12:52:00,42.0,39.0,29.88,North,0,1.0,4.0,89,0.02,,,0.72,,2013-04-10 17:52:00,
2013-04-10 13:03:00,42.0,39.0,29.88,NNW,329,0.0,6.0,89,0.02,,,0.73,,2013-04-10 18:03:00,
2013-04-10 13:12:00,42.0,39.0,29.88,NNW,329,0.0,6.0,89,0.02,,,0.73,,2013-04-10 18:12:00,
2013-04-10 13:23:00,42.0,39.0,29.86,NW,305,6.0,9.0,88,0.02,,,0.73,,2013-04-10 18:23:00,
2013-04-10 13:33:00,44.0,41.0,29.84,NW,304,4.0,11.0,89,0.02,,,0.73,,2013-04-10 18:33:00,
2013-04-10 13:42:00,44.0,41.0,29.84,NW,304,4.0,11.0,89,0.02,,,0.73,,2013-04-10 18:42:00,
2013-04-10 13:52:00,44.0,41.0,29.83,NNW,331,4.0,8.0,88,0.01,,,0.73,,2013-04-10 18:52:00,
2013-04-10 14:03:00,44.0,41.0,29.83,NNW,327,5.0,10.0,88,0.00,,,0.73,,2013-04-10 19:03:00,
2013-04-10 14:12:00,44.0,41.0,29.84,NW,314,2.0,10.0,88,0.00,,,0.73,,2013-04-10 19:12:00,
2013-04-10 14:22:00,44.0,41.0,29.84,NW,314,2.0,10.0,88,0.00,,,0.73,,2013-04-10 19:22:00,
2013-04-10 14:33:00,44.0,41.0,29.85,NNW,331,4.0,12.0,88,0.00,,,0.73,,2013-04-10 19:33:00,
2013-04-10 14:42:00,43.0,40.0,29.86,North,355,2.0,11.0,88,0.01,,,0.74,,2013-04-10 19:42:00,
2013-04-10 14:53:00,43.0,40.0,29.86,North,355,2.0,11.0,88,0.01,,,0.74,,2013-04-10 19:53:00,
2013-04-10 15:02:00,43.0,40.0,29.85,NW,325,14.0,18.0,88,0.05,,,0.78,,2013-04-10 20:02:00,
2013-04-10 15:12:00,43.0,40.0,29.83,WNW,294,9.0,17.0,88,0.07,,,0.80,,2013-04-10 20:12:00,
2013-04-10 15:23:00,43.0,40.0,29.83,WNW,294,9.0,17.0,88,0.07,,,0.80,,2013-04-10 20:23:00,
2013-04-10 15:33:00,42.0,39.0,29.85,West,278,7.0,13.0,88,0.08,,,0.81,,2013-04-10 20:33:00,
2013-04-10 15:42:00,41.0,38.0,29.85,NW,316,4.0,9.0,88,0.08,,,0.81,,2013-04-10 20:42:00,
2013-04-10 15:52:00,41.0,38.0,29.85,NW,316,4.0,9.0,88,0.08,,,0.81,,2013-04-10 20:52:00,
2013-04-10 16:02:00,41.0,38.0,29.81,NW,316,5.0,10.0,88,0.03,,,0.81,,2013-04-10 21:02:00,
2013-04-10 16:12:00,42.0,39.0,29.80,North,349,2.0,6.0,88,0.02,,,0.82,,2013-04-10 21:12:00,
2013-04-10 16:22:00,42.0,39.0,29.80,North,349,2.0,6.0,88,0.02,,,0.82,,2013-04-10 21:22:00,
2013-04-10 16:32:00,42.0,39.0,29.77,NNW,346,3.0,8.0,88,0.02,,,0.83,,2013-04-10 21:32:00,
2013-04-10 16:42:00,42.0,39.0,29.77,NNW,346,3.0,8.0,88,0.02,,,0.83,,2013-04-10 21:42:00,
2013-04-10 16:53:00,43.0,40.0,29.79,WNW,288,2.0,13.0,88,0.03,,,0.84,,2013-04-10 21:53:00,
2013-04-10 17:03:00,43.0,40.0,29.75,North,351,8.0,13.0,88,0.03,,,0.84,,2013-04-10 22:03:00,
2013-04-10 17:12:00,43.0,40.0,29.74,NW,320,4.0,8.0,88,0.02,,,0.84,,2013-04-10 22:12:00,
2013-04-10 17:22:00,43.0,40.0,29.74,NW,320,4.0,8.0,88,0.02,,,0.84,,2013-04-10 22:22:00,
2013-04-10 17:33:00,43.0,40.0,29.76,North,352,1.0,12.0,88,0.01,,,0.84,,2013-04-10 22:33:00,
2013-04-10 17:42:00,43.0,40.0,29.76,North,352,1.0,12.0,88,0.01,,,0.84,,2013-04-10 22:42:00,
2013-04-10 17:53:00,43.0,40.0,29.76,NW,321,11.0,11.0,88,0.01,,,0.84,,2013-04-10 22:53:00,
2013-04-10 18:02:00,43.0,40.0,29.77,NW,308,5.0,11.0,88,0.00,,,0.84,,2013-04-10 23:02:00,
2013-04-10 18:12:00,43.0,40.0,29.77,WNW,297,8.0,9.0,88,0.01,,,0.85,,2013-04-10 23:12:00,
2013-04-10 18:22:00,43.0,40.0,29.77,WNW,297,8.0,9.0,88,0.01,,,0.85,,2013-04-10 23:22:00,
2013-04-10 18:33:00,43.0,40.0,29.75,NW,316,3.0,10.0,89,0.01,,,0.85,,2013-04-10 23:33:00,
2013-04-10 18:42:00,43.0,40.0,29.75,NW,316,3.0,10.0,89,0.01,,,0.85,,2013-04-10 23:42:00,
2013-04-10 18:53:00,43.0,40.0,29.76,NE,50,2.0,10.0,89,0.01,,,0.85,,2013-04-10 23:53:00,
2013-04-10 19:02:00,43.0,40.0,29.77,WNW,293,7.0,10.0,89,0.01,,,0.85,,2013-04-11 00:02:00,
2013-04-10 19:12:00,42.0,39.0,29.76,NW,317,6.0,11.0,89,0.00,,,0.85,,2013-04-11 00:12:00,
2013-04-10 19:22:00,42.0,39.0,29.76,NW,317,6.0,11.0,89,0.00,,,0.85,,2013-04-11 00:22:00,
2013-04-10 19:32:00,42.0,39.0,29.75,WNW,295,4.0,8.0,90,0.00,,,0.85,,2013-04-11 00:32:00,
2013-04-10 19:42:00,42.0,39.0,29.77,NNW,339,5.0,8.0,90,0.00,,,0.85,,2013-04-11 00:42:00,
2013-04-10 19:53:00,42.0,39.0,29.77,NNW,339,5.0,8.0,90,0.00,,,0.85,,2013-04-11 00:53:00,
2013-04-10 20:02:00,42.0,39.0,29.78,NNW,338,2.0,11.0,90,0.00,,,0.85,,2013-04-11 01:02:00,
2013-04-10 20:12:00,42.0,39.0,29.79,NNE,26,4.0,10.0,90,0.01,,,0.86,,2013-04-11 01:12:00,
2013-04-10 20:22:00,42.0,39.0,29.79,NNE,26,4.0,10.0,90,0.01,,,0.86,,2013-04-11 01:22:00,
2013-04-10 20:32:00,42.0,39.0,29.79,North,352,4.0,6.0,90,0.02,,,0.87,,2013-04-11 01:32:00,
2013-04-10 20:42:00,41.0,38.0,29.79,WSW,248,3.0,7.0,90,0.02,,,0.87,,2013-04-11 01:42:00,
2013-04-10 20:52:00,41.0,38.0,29.79,WSW,248,3.0,7.0,90,0.02,,,0.87,,2013-04-11 01:52:00,
2013-04-10 21:02:00,41.0,38.0,29.79,NNE,12,4.0,5.0,90,0.04,,,0.75,,2013-04-11 02:02:00,
2013-04-10 21:12:00,40.0,37.0,29.79,North,4,2.0,15.0,90,0.06,,,0.77,,2013-04-11 02:12:00,
2013-04-10 21:22:00,40.0,37.0,29.79,North,4,2.0,15.0,90,0.06,,,0.77,,2013-04-11 02:22:00,
2013-04-10 21:32:00,40.0,37.0,29.78,NW,320,5.0,8.0,90,0.05,,,0.77,,2013-04-11 02:32:00,
2013-04-10 21:42:00,40.0,37.0,29.78,NW,320,5.0,8.0,90,0.05,,,0.77,,2013-04-11 02:42:00,
2013-04-10 21:53:00,40.0,37.0,29.78,NW,317,4.0,9.0,90,0.05,,,0.78,,2013-04-11 02:53:00,
2013-04-10 22:02:00,40.0,37.0,29.78,NW,323,3.0,9.0,90,0.03,,,0.75,,2013-04-11 03:02:00,
2013-04-10 22:12:00,40.0,37.0,29.77,NW,319,4.0,8.0,90,0.03,,,0.76,,2013-04-11 03:12:00,
2013-04-10 22:22:00,40.0,37.0,29.77,NW,319,4.0,8.0,90,0.03,,,0.76,,2013-04-11 03:22:00,
2013-04-10 22:33:00,40.0,37.0,29.78,NNW,338,1.0,4.0,90,0.03,,,0.76,,2013-04-11 03:33:00,
2013-04-10 22:43:00,39.0,36.0,29.78,WNW,283,2.0,7.0,90,0.02,,,0.76,,2013-04-11 03:43:00,
2013-04-10 22:53:00,39.0,36.0,29.78,WNW,283,2.0,7.0,90,0.02,,,0.76,,2013-04-11 03:53:00,
2013-04-10 23:03:00,39.0,36.0,29.78,West,265,5.0,8.0,90,0.01,,,0.71,,2013-04-11 04:03:00,
2013-04-10 23:12:00,39.0,36.0,29.78,WNW,283,5.0,8.0,90,0.00,,,0.71,,2013-04-11 04:12:00,
2013-04-10 23:22:00,39.0,36.0,29.78,WNW,283,5.0,8.0,90,0.00,,,0.71,,2013-04-11 04:22:00,
2013-04-10 23:33:00,39.0,36.0,29.78,NW,320,4.0,11.0,90,0.01,,,0.72,,2013-04-11 04:33:00,
2013-04-10 23:42:00,39.0,36.0,29.78,NW,320,4.0,11.0,90,0.01,,,0.72,,2013-04-11 04:42:00,
2013-04-10 23:53:00,39.0,36.0,29.78,NW,319,4.0,7.0,90,0.01,,,0.72,,2013-04-11 04:53:00,